User: anonymous
Location: Lawrence Hall of Science
(37.8785°N, 122.2415°W)
Time: 14:23:26
(UTC-07:00)
Language:

Cosmos 1461 - Orbit

View from above orbital plane
View from above orbital plane
View from above satellite
View from above satellite

Ground track
Ground track

The orbit data is extracted from the following two-line orbital elements,

1 14064U 83044A   14107.63028079  .00008260  00000-0  80848-3 0  4691
2 14064 065.0046 252.3667 0103495 150.2275 210.5285 14.88090681550843
Epoch (UTC): 17 April 2014 15:07:36
Eccentricity: 0.0103495
inclination: 65.0046°
perigee height: 531 km
apogee height: 676 km
right ascension of ascending node: 252.3667°
argument of perigee: 150.2275°
revolutions per day: 14.88090681
mean anomaly at epoch: 210.5285°
orbit number at epoch: 55084

The dashed part of the orbit path shows where the satellite is in the earth's shadow,  

DLR